QPF
0.00 0.00 0.00 0.00 0.00 0.00 0.00 0.00 0.00 0.00 0.00 0.00 0.00 0.00 0.00 0.00 0.00 0.00 0.00 0.00 0.00 0.00 0.00 0.00 0.00 0.00 0.00 0.00 0.00 0.03 0.07 0.05 0.02 0.01 0.00 0.00 0.00 0.02 0.06 0.04 0.05 0.04 0.03 0.05
0.00 0.00 0.00 0.00 0.00 0.00 0.00 0.00 0.00 0.00 0.00 0.00 0.00 0.00 0.00 0.00 0.00 0.00 0.00 0.00 0.00 0.00 0.00 0.00 0.00 0.00 0.00 0.00 0.01 0.03 0.02 0.06 0.05 0.02 0.02 0.01 0.00 0.01 0.03 0.03 0.01 0.02 0.03 0.11
0.00 0.00 0.00 0.00 0.00 0.00 0.00 0.00 0.00 0.00 0.00 0.00 0.00 0.00 0.00 0.00 0.00 0.00 0.00 0.00 0.00 0.00 0.00 0.01 0.01 0.00 0.00 0.00 0.00 0.02 0.05 0.04 0.03 0.01 0.04 0.06 0.05 0.04 0.04 0.03 0.02 0.02 0.02 0.00
0.00 0.00 0.00 0.00 0.00 0.00 0.00 0.00 0.00 0.00 0.00 0.00 0.00 0.00 0.00 0.00 0.00 0.00 0.00 0.00 0.00 0.00 0.00 0.00 0.03 0.04 0.02 0.00 0.01 0.02 0.05 0.06 0.03 0.02 0.01 0.00 0.04 0.04 0.02 0.02 0.00 0.00 0.00 0.00
0.00 0.00 0.00 0.00 0.00 0.00 0.00 0.00 0.00 0.00 0.00 0.00 0.00 0.00 0.00 0.00 0.00 0.00 0.00 0.00 0.00 0.00 0.00 0.01 0.02 0.03 0.04 0.04 0.06 0.08 0.05 0.06 0.05 0.05 0.02 0.01 0.02 0.00 0.00 0.00 0.00 0.00 0.00 0.00
0.00 0.00 0.00 0.00 0.00 0.00 0.00 0.00 0.00 0.00 0.00 0.00 0.00 0.00 0.00 0.00 0.00 0.00 0.00 0.00 0.00 0.00 0.00 0.00 0.00 0.00 0.01 0.01 0.02 0.04 0.05 0.12 0.21 0.10 0.02 0.01 0.01 0.00 0.00 0.00 0.00 0.00 0.00 0.01
0.00 0.00 0.00 0.00 0.00 0.00 0.00 0.00 0.00 0.00 0.00 0.00 0.00 0.00 0.00 0.00 0.00 0.00 0.00 0.00 0.00 0.00 0.00 0.00 0.00 0.00 0.01 0.01 0.00 0.02 0.07 0.12 0.27 0.19 0.02 0.01 0.00 0.00 0.00 0.00 0.00 0.00 0.00 0.01
0.00 0.00 0.00 0.00 0.00 0.00 0.00 0.00 0.00 0.00 0.00 0.00 0.00 0.00 0.00 0.00 0.00 0.00 0.00 0.00 0.00 0.00 0.00 0.00 0.00 0.01 0.04 0.02 0.00 0.01 0.04 0.12 0.19 0.11 0.02 0.01 0.00 0.00 0.00 0.00 0.03 0.00 0.00 0.00
0.01 0.00 0.00 0.00 0.00 0.00 0.00 0.00 0.00 0.00 0.00 0.00 0.00 0.00 0.00 0.00 0.00 0.00 0.00 0.00 0.00 0.00 0.01 0.02 0.02 0.04 0.04 0.02 0.01 0.01 0.02 0.05 0.20 0.10 0.01 0.01 0.05 0.00 0.00 0.00 0.01 0.00 0.00 0.00
0.02 0.00 0.00 0.00 0.00 0.00 0.01 0.01 0.00 0.00 0.01 0.00 0.00 0.00 0.00 0.00 0.00 0.01 0.01 0.00 0.00 0.01 0.02 0.03 0.07 0.13 0.02 0.02 0.01 0.04 0.02 0.02 0.05 0.06 0.01 0.01 0.00 0.00 0.00 0.00 0.01 0.00 0.00 0.00
0.01 0.00 0.00 0.00 0.01 0.00 0.01 0.01 0.00 0.00 0.00 0.00 0.00 0.00 0.00 0.00 0.00 0.01 0.01 0.01 0.02 0.01 0.03 0.03 0.09 0.31 0.09 0.06 0.03 0.04 0.04 0.04 0.03 0.04 0.03 0.02 0.00 0.00 0.00 0.00 0.00 0.00 0.00 0.00
0.01 0.00 0.00 0.00 0.01 0.01 0.01 0.02 0.00 0.00 0.00 0.00 0.00 0.00 0.00 0.00 0.00 0.00 0.00 0.01 0.00 0.01 0.03 0.03 0.05 0.12 0.06 0.07 0.09 0.06 0.06 0.05 0.08 0.08 0.06 0.00 0.00 0.00 0.00 0.00 0.00 0.00 0.00 0.00
0.01 0.00 0.00 0.00 0.00 0.01 0.00 0.02 0.00 0.01 0.01 0.00 0.00 0.00 0.00 0.00 0.00 0.00 0.00 0.01 0.01 0.03 0.04 0.03 0.02 0.06 0.03 0.05 0.09 0.09 0.05 0.00 0.01 0.01 0.00 0.00 0.01 0.00 0.00 0.00 0.00 0.00 0.00 0.00
0.01 0.01 0.00 0.00 0.01 0.02 0.01 0.02 0.01 0.01 0.01 0.00 0.00 0.00 0.00 0.00 0.00 0.00 0.00 0.00 0.00 0.00 0.01 0.02 0.02 0.04 0.03 0.03 0.03 0.02 0.01 0.00 0.00 0.01 0.01 0.03 0.04 0.03 0.01 0.00 0.00 0.01 0.02 0.02
0.01 0.01 0.00 0.00 0.00 0.02 0.04 0.04 0.02 0.00 0.01 0.01 0.00 0.00 0.00 0.00 0.00 0.00 0.00 0.00 0.00 0.00 0.00 0.01 0.02 0.02 0.04 0.03 0.05 0.02 0.00 0.00 0.01 0.04 0.02 0.06 0.09 0.05 0.02 0.01 0.01 0.03 0.03 0.02
0.01 0.01 0.00 0.00 0.01 0.03 0.06 0.05 0.01 0.00 0.01 0.04 0.02 0.00 0.00 0.00 0.00 0.00 0.00 0.00 0.00 0.00 0.00 0.01 0.01 0.02 0.02 0.01 0.08 0.02 0.00 0.00 0.01 0.03 0.05 0.05 0.04 0.04 0.01 0.01 0.00 0.01 0.01 0.01
0.00 0.00 0.00 0.00 0.02 0.05 0.03 0.02 0.01 0.01 0.04 0.16 0.07 0.01 0.00 0.00 0.00 0.01 0.01 0.00 0.00 0.00 0.01 0.01 0.01 0.01 0.01 0.03 0.06 0.03 0.01 0.02 0.05 0.05 0.04 0.03 0.02 0.02 0.00 0.00 0.00 0.00 0.00 0.00
0.00 0.00 0.00 0.01 0.05 0.08 0.06 0.01 0.03 0.10 0.18 0.14 0.08 0.02 0.00 0.00 0.02 0.03 0.01 0.01 0.01 0.01 0.02 0.02 0.01 0.01 0.03 0.03 0.01 0.02 0.03 0.06 0.06 0.05 0.02 0.01 0.01 0.00 0.00 0.00 0.00 0.00 0.00 0.00
0.00 0.02 0.04 0.05 0.07 0.04 0.02 0.03 0.07 0.12 0.12 0.07 0.02 0.01 0.04 0.01 0.05 0.06 0.03 0.03 0.02 0.01 0.02 0.01 0.01 0.01 0.01 0.01 0.02 0.02 0.05 0.09 0.09 0.04 0.01 0.00 0.00 0.00 0.00 0.00 0.00 0.00 0.00 0.00
0.03 0.08 0.11 0.11 0.05 0.03 0.03 0.05 0.05 0.06 0.03 0.01 0.00 0.00 0.02 0.01 0.02 0.01 0.03 0.03 0.02 0.02 0.01 0.01 0.01 0.01 0.00 0.00 0.01 0.00 0.02 0.03 0.03 0.01 0.00 0.00 0.00 0.00 0.00 0.00 0.00 0.00 0.00 0.00
0.09 0.11 0.07 0.04 0.03 0.03 0.02 0.01 0.01 0.01 0.01 0.00 0.00 0.00 0.01 0.01 0.02 0.03 0.02 0.03 0.02 0.01 0.01 0.01 0.02 0.02 0.00 0.00 0.00 0.00 0.00 0.00 0.00 0.00 0.00 0.00 0.00 0.00 0.00 0.00 0.00 0.00 0.00 0.00
0.07 0.02 0.03 0.05 0.02 0.01 0.00 0.00 0.00 0.00 0.00 0.00 0.00 0.00 0.01 0.02 0.03 0.05 0.03 0.02 0.02 0.02 0.02 0.01 0.03 0.01 0.00 0.00 0.00 0.00 0.00 0.00 0.00 0.00 0.00 0.00 0.00 0.00 0.00 0.00 0.00 0.00 0.00 0.00
0.07 0.03 0.03 0.01 0.01 0.01 0.00 0.00 0.00 0.00 0.00 0.01 0.01 0.00 0.00 0.01 0.01 0.02 0.03 0.02 0.05 0.02 0.04 0.03 0.01 0.00 0.00 0.00 0.00 0.00 0.00 0.00 0.00 0.00 0.00 0.00 0.00 0.00 0.00 0.00 0.00 0.00 0.00 0.00
0.03 0.01 0.01 0.00 0.00 0.00 0.00 0.00 0.01 0.00 0.01 0.01 0.01 0.02 0.01 0.02 0.01 0.03 0.10 0.06 0.04 0.04 0.03 0.01 0.00 0.00 0.00 0.00 0.00 0.00 0.00 0.00 0.00 0.00 0.00 0.00 0.00 0.00 0.00 0.00 0.00 0.00 0.00 0.00
0.01 0.00 0.00 0.00 0.00 0.00 0.00 0.00 0.00 0.00 0.01 0.01 0.03 0.03 0.03 0.03 0.06 0.06 0.07 0.05 0.06 0.03 0.03 0.00 0.00 0.00 0.00 0.00 0.00 0.00 0.00 0.00 0.00 0.00 0.00 0.00 0.00 0.00 0.00 0.00 0.00 0.00 0.00 0.00
0.00 0.00 0.00 0.00 0.00 0.00 0.00 0.00 0.00 0.00 0.01 0.03 0.05 0.06 0.03 0.03 0.01 0.01 0.00 0.00 0.01 0.01 0.00 0.01 0.00 0.00 0.00 0.00 0.00 0.00 0.00 0.00 0.00 0.00 0.00 0.00 0.00 0.00 0.00 0.00 0.00 0.00 0.00 0.00
0.00 0.00 0.00 0.00 0.00 0.00 0.00 0.00 0.00 0.00 0.01 0.03 0.01 0.01 0.01 0.01 0.00 0.00 0.00 0.00 0.00 0.00 0.00 0.00 0.00 0.00 0.00 0.00 0.00 0.00 0.00 0.00 0.00 0.00 0.00 0.00 0.00 0.00 0.00 0.00 0.00 0.00 0.00 0.00
MSLP
1017.03 1016.99 1016.83 1016.74 1016.99 1016.87 1016.81 1015.12 1014.16 1015.00 1014.66 1013.43 1012.60 1012.09 1012.51 1013.54 1013.05 1013.38 1013.08 1012.81 1012.16 1011.57 1011.05 1010.26 1009.47 1008.70 1007.94 1007.41 1008.02 1007.76 1007.46 1006.09 1003.06 1001.44 1000.80 1000.48 1000.58 1001.14 1002.04 1002.43 1001.56 1001.36 1001.23 1001.80
1017.30 1017.03 1016.84 1016.94 1017.19 1017.03 1015.69 1014.30 1014.25 1014.87 1014.55 1013.46 1012.74 1013.52 1013.61 1013.74 1013.58 1013.61 1013.39 1013.03 1012.84 1012.52 1012.01 1011.28 1010.05 1009.32 1008.88 1008.54 1008.62 1009.39 1009.70 1007.10 1004.70 1002.57 1001.48 1000.58 1000.57 1000.88 1001.16 1002.48 1002.85 1001.92 1001.72 1001.89
1017.17 1017.05 1017.12 1017.05 1017.36 1017.08 1016.28 1014.95 1014.49 1014.21 1013.73 1013.70 1013.56 1013.83 1013.84 1014.01 1014.64 1014.38 1014.27 1013.86 1013.74 1013.22 1012.29 1011.53 1010.74 1010.06 1009.41 1009.27 1009.09 1009.93 1010.21 1009.05 1006.99 1003.92 1002.94 1002.74 1001.71 1000.78 1001.24 1002.04 1002.02 1001.31 1000.99 1000.40
1016.98 1017.06 1017.34 1017.34 1017.34 1017.09 1016.75 1015.55 1014.72 1014.06 1013.88 1013.96 1014.01 1014.52 1014.39 1014.24 1014.54 1014.67 1014.24 1014.53 1014.19 1013.33 1012.74 1011.99 1010.88 1010.72 1010.45 1009.94 1009.23 1009.56 1010.24 1008.92 1007.76 1005.72 1003.50 1003.08 1002.60 1002.52 1000.98 1001.28 1001.24 1001.04 1000.48 1000.16
1016.99 1017.20 1017.34 1017.48 1017.36 1017.33 1016.37 1016.05 1014.70 1014.74 1014.06 1014.61 1014.54 1014.93 1014.40 1014.31 1014.53 1014.64 1013.95 1014.46 1013.63 1013.27 1012.63 1011.99 1011.66 1011.40 1010.96 1010.39 1009.57 1009.80 1010.23 1009.30 1008.23 1006.59 1004.80 1003.79 1002.91 1002.24 1000.92 1000.58 1000.57 1000.47 1000.36 1000.16
1016.92 1017.24 1017.32 1017.53 1017.57 1017.56 1016.04 1016.74 1015.80 1014.69 1014.59 1014.37 1014.34 1014.12 1014.59 1014.97 1015.10 1014.66 1014.30 1013.90 1013.86 1013.35 1012.70 1012.52 1012.09 1011.70 1011.12 1010.67 1010.37 1010.12 1010.64 1009.93 1009.03 1006.36 1004.51 1004.01 1003.37 1002.03 1001.12 1000.60 1000.45 1000.63 1000.84 1001.57
1016.81 1017.24 1017.40 1017.59 1017.75 1017.61 1016.23 1016.60 1016.00 1015.09 1014.46 1014.01 1014.42 1014.98 1015.22 1015.11 1014.94 1014.66 1014.18 1013.98 1013.69 1013.39 1013.06 1012.85 1011.52 1010.45 1009.69 1009.32 1009.14 1009.38 1009.98 1010.04 1009.40 1007.02 1004.00 1003.39 1001.92 1001.39 1000.75 1000.88 1001.12 1001.77 1002.25 1003.58
1016.84 1017.17 1017.42 1017.67 1017.85 1017.89 1017.00 1016.83 1016.01 1015.45 1014.94 1014.46 1014.93 1015.41 1015.27 1015.08 1014.79 1014.51 1014.11 1013.86 1013.64 1013.89 1013.52 1012.36 1010.44 1008.83 1007.59 1007.23 1007.60 1007.94 1008.66 1009.91 1008.90 1005.92 1003.36 1003.11 1002.08 1002.28 1001.94 1002.02 1003.22 1004.00 1004.51 1005.12
1016.78 1017.15 1017.45 1017.67 1017.89 1018.12 1017.73 1016.96 1016.81 1016.41 1016.19 1015.34 1015.30 1015.41 1015.22 1014.62 1013.98 1013.80 1013.81 1013.92 1014.12 1014.04 1013.83 1012.62 1011.07 1009.30 1007.96 1006.20 1005.78 1006.71 1008.16 1009.30 1009.46 1007.02 1004.71 1003.42 1003.43 1003.35 1003.77 1003.41 1004.50 1006.27 1006.58 1007.16
1016.78 1017.13 1017.43 1017.72 1017.96 1018.24 1017.91 1017.44 1017.70 1017.28 1017.23 1015.88 1016.06 1015.28 1015.11 1015.17 1015.07 1014.44 1013.85 1014.20 1013.81 1013.86 1013.64 1012.66 1011.24 1010.06 1008.25 1006.39 1005.65 1006.85 1007.66 1008.12 1008.10 1007.22 1005.32 1004.72 1005.31 1004.82 1004.73 1005.34 1008.01 1007.98 1008.72 1009.62
1016.57 1017.03 1017.38 1017.67 1017.97 1018.29 1018.20 1017.85 1017.88 1018.05 1017.84 1016.23 1016.32 1016.15 1015.78 1015.42 1015.39 1015.03 1014.84 1014.57 1014.58 1014.31 1013.73 1012.76 1012.38 1011.08 1008.23 1006.88 1005.76 1006.10 1006.47 1006.78 1006.94 1007.09 1007.12 1007.37 1007.85 1006.38 1007.64 1009.79 1009.59 1009.86 1010.60 1011.64
1016.58 1016.97 1017.30 1017.62 1017.99 1018.28 1018.63 1018.34 1018.13 1018.48 1018.53 1016.91 1016.78 1016.52 1016.37 1016.13 1015.82 1015.64 1015.36 1015.21 1015.29 1015.37 1015.06 1014.23 1013.52 1011.49 1009.50 1008.14 1006.97 1006.73 1007.66 1008.35 1007.93 1009.23 1010.16 1010.58 1010.87 1011.16 1011.84 1011.60 1011.68 1011.97 1012.50 1013.40
1016.48 1016.90 1017.29 1017.66 1017.95 1018.25 1018.50 1018.26 1018.55 1018.78 1018.29 1016.99 1015.99 1015.33 1015.31 1015.75 1016.11 1016.30 1016.18 1014.94 1015.13 1015.94 1016.71 1015.71 1014.13 1012.24 1010.75 1009.33 1008.76 1008.48 1008.86 1009.05 1009.45 1010.21 1012.16 1012.44 1012.76 1013.19 1013.56 1013.68 1013.71 1013.99 1014.27 1014.72
1016.40 1016.88 1017.34 1017.69 1018.01 1018.34 1018.68 1018.28 1018.40 1018.22 1017.86 1016.76 1015.15 1015.26 1015.23 1015.40 1015.55 1015.82 1016.15 1015.93 1015.76 1016.03 1015.82 1015.71 1014.68 1012.96 1011.57 1010.76 1010.51 1010.46 1011.09 1010.59 1011.44 1012.50 1013.23 1013.64 1014.35 1014.84 1014.92 1015.08 1015.27 1015.48 1015.66 1016.00
1016.38 1016.92 1017.29 1017.67 1018.05 1018.42 1018.66 1018.54 1018.38 1018.14 1018.03 1016.92 1015.72 1015.29 1014.60 1014.86 1015.21 1015.44 1015.79 1016.07 1016.19 1015.87 1015.87 1015.48 1014.30 1012.79 1012.51 1011.44 1011.11 1012.16 1013.17 1013.78 1013.65 1013.90 1014.46 1014.84 1015.73 1015.97 1016.10 1016.02 1016.06 1016.30 1016.43 1016.93
1016.38 1016.90 1017.27 1017.62 1017.97 1018.35 1018.56 1018.70 1018.45 1018.55 1018.62 1018.38 1016.39 1015.08 1014.86 1014.74 1014.95 1015.05 1015.28 1015.64 1016.20 1016.48 1016.04 1015.25 1013.90 1013.16 1012.71 1012.32 1012.50 1014.46 1015.04 1015.24 1015.58 1015.47 1015.87 1016.16 1016.65 1016.82 1017.00 1016.89 1017.04 1017.40 1017.47 1017.67
1016.36 1016.84 1017.25 1017.55 1017.86 1018.02 1018.16 1018.30 1018.36 1018.17 1019.33 1019.20 1017.14 1014.76 1014.27 1014.70 1014.67 1014.71 1014.83 1015.68 1016.07 1016.12 1015.43 1014.09 1013.66 1013.01 1012.99 1013.03 1013.83 1015.54 1016.22 1016.58 1016.77 1016.89 1016.59 1016.68 1017.00 1017.41 1017.53 1017.32 1017.52 1017.64 1017.91 1018.33
1016.39 1016.86 1017.18 1017.48 1017.72 1018.06 1018.02 1017.94 1018.41 1018.80 1019.47 1019.01 1017.09 1014.99 1014.51 1014.58 1014.23 1014.37 1014.72 1015.44 1015.78 1015.32 1014.37 1013.52 1013.22 1012.94 1013.01 1013.88 1015.79 1016.60 1017.19 1017.42 1017.49 1017.42 1017.22 1017.18 1017.57 1017.56 1017.56 1017.60 1017.69 1017.98 1018.57 1019.19
1016.32 1016.75 1017.12 1017.50 1017.76 1017.84 1017.54 1017.90 1018.38 1018.71 1018.84 1017.40 1016.07 1014.52 1013.82 1014.46 1014.15 1014.27 1014.80 1014.76 1014.38 1013.42 1013.28 1013.03 1013.13 1013.12 1014.08 1015.66 1016.59 1017.36 1017.90 1018.08 1018.04 1018.02 1017.81 1017.62 1017.70 1017.84 1018.01 1018.12 1018.35 1018.76 1019.55 1020.28
1016.24 1017.00 1017.23 1017.00 1017.09 1017.22 1017.77 1018.37 1018.43 1018.31 1017.51 1016.36 1014.92 1013.71 1013.52 1014.08 1014.15 1014.38 1014.25 1014.06 1013.42 1012.76 1012.34 1012.66 1013.23 1014.00 1016.15 1017.12 1017.70 1018.00 1018.33 1018.44 1018.31 1018.07 1018.09 1018.25 1018.41 1018.75 1019.15 1019.46 1019.68 1020.09 1020.83 1021.61
1016.46 1016.33 1016.28 1016.48 1016.86 1017.08 1016.64 1016.68 1016.62 1016.20 1015.51 1014.40 1013.78 1013.37 1013.11 1013.76 1013.76 1013.63 1013.68 1013.28 1012.90 1012.26 1011.80 1012.59 1013.07 1014.45 1016.57 1017.87 1018.34 1018.83 1018.96 1018.94 1019.01 1019.16 1019.34 1019.37 1019.37 1019.85 1020.40 1021.00 1021.45 1021.95 1022.62 1023.39
1015.68 1015.49 1016.18 1016.70 1016.55 1015.96 1015.81 1015.37 1015.02 1014.40 1013.31 1012.82 1012.92 1012.93 1012.87 1013.02 1013.16 1013.28 1013.27 1012.84 1012.79 1012.12 1012.28 1012.96 1013.22 1015.95 1017.46 1018.50 1019.28 1019.71 1019.94 1020.10 1020.32 1020.42 1020.66 1020.92 1021.20 1021.52 1022.00 1022.56 1023.20 1023.87 1024.53 1025.02
1015.19 1015.25 1015.51 1015.28 1015.53 1015.23 1014.64 1013.96 1013.66 1013.02 1012.79 1013.06 1013.27 1013.45 1013.23 1013.33 1013.26 1013.58 1013.37 1013.11 1012.40 1012.34 1012.51 1012.84 1015.10 1016.96 1018.24 1019.20 1019.96 1020.59 1021.04 1021.41 1021.75 1022.06 1022.29 1022.53 1022.85 1023.18 1023.60 1024.27 1024.79 1025.16 1025.64 1026.08
1014.25 1014.14 1014.60 1014.57 1014.42 1013.89 1013.04 1012.68 1012.61 1013.17 1013.23 1013.26 1013.49 1013.74 1013.59 1013.53 1013.96 1013.78 1013.23 1012.72 1012.59 1012.36 1012.78 1014.06 1016.10 1017.98 1019.27 1020.15 1020.84 1021.38 1022.17 1022.60 1022.88 1023.29 1023.68 1024.04 1024.38 1024.73 1025.16 1025.52 1025.85 1026.11 1026.51 1026.91
1013.58 1013.30 1013.47 1013.68 1013.66 1013.84 1013.73 1013.75 1013.60 1013.76 1014.12 1013.96 1013.96 1013.70 1013.72 1013.47 1013.58 1013.56 1013.32 1012.93 1012.63 1012.94 1014.16 1016.04 1017.84 1019.34 1020.54 1021.37 1022.02 1022.64 1023.13 1023.52 1023.82 1024.23 1024.62 1024.92 1025.22 1025.49 1025.86 1026.19 1026.54 1026.96 1027.30 1027.58
1013.58 1013.72 1013.93 1014.16 1014.06 1014.16 1014.26 1014.06 1014.06 1014.18 1014.20 1014.08 1013.80 1013.30 1013.10 1013.00 1013.01 1013.28 1013.07 1013.16 1013.45 1014.94 1016.48 1018.05 1019.38 1020.56 1021.50 1022.21 1022.83 1023.33 1023.68 1024.00 1024.41 1024.80 1025.10 1025.45 1025.70 1025.91 1026.41 1026.84 1027.15 1027.40 1027.64 1027.86
1014.00 1014.27 1014.64 1014.42 1014.34 1014.15 1014.33 1014.44 1014.39 1014.50 1014.15 1013.46 1013.02 1012.75 1012.56 1012.97 1012.95 1013.21 1013.66 1014.42 1015.68 1017.01 1018.24 1019.23 1020.31 1021.36 1022.34 1023.08 1023.58 1023.94 1024.14 1024.38 1024.72 1025.08 1025.41 1025.78 1026.18 1026.52 1026.47 1026.62 1027.10 1027.24 1027.66 1027.96
Thickness
5386 5392 5398 5404 5406 5410 5416 5438 5448 5441 5446 5464 5474 5480 5471 5443 5461 5458 5458 5456 5458 5457 5457 5458 5462 5466 5477 5484 5482 5484 5495 5508 5533 5552 5567 5575 5570 5561 5555 5542 5562 5567 5568 5567
5377 5385 5392 5396 5399 5406 5424 5443 5445 5438 5442 5447 5464 5451 5449 5448 5449 5446 5445 5445 5443 5440 5434 5431 5448 5451 5459 5464 5465 5453 5450 5496 5515 5534 5551 5564 5558 5565 5567 5547 5540 5548 5551 5560
5375 5381 5386 5393 5394 5401 5414 5430 5428 5440 5446 5449 5444 5439 5439 5436 5429 5427 5425 5425 5421 5420 5425 5434 5433 5438 5444 5446 5450 5441 5442 5458 5487 5520 5527 5526 5532 5556 5555 5546 5538 5551 5557 5571
5375 5380 5381 5386 5391 5398 5407 5419 5424 5436 5428 5435 5435 5428 5428 5426 5416 5417 5421 5401 5403 5411 5408 5416 5427 5426 5425 5431 5442 5442 5441 5457 5478 5501 5527 5526 5522 5517 5550 5543 5546 5543 5560 5565
5372 5375 5378 5382 5389 5393 5408 5400 5424 5425 5433 5423 5422 5407 5421 5421 5415 5410 5416 5397 5412 5413 5409 5416 5409 5412 5414 5416 5430 5430 5429 5449 5471 5475 5506 5515 5516 5521 5544 5549 5550 5553 5559 5565
5368 5370 5376 5379 5383 5386 5405 5396 5406 5421 5413 5420 5421 5423 5413 5403 5400 5404 5407 5407 5401 5401 5406 5407 5409 5410 5412 5414 5413 5417 5414 5435 5448 5472 5507 5506 5500 5521 5534 5543 5550 5550 5545 5548
5366 5367 5371 5375 5377 5381 5395 5393 5399 5407 5412 5422 5414 5403 5398 5396 5396 5393 5400 5400 5395 5398 5400 5399 5410 5420 5423 5423 5426 5430 5414 5426 5434 5455 5509 5497 5522 5533 5539 5537 5540 5540 5539 5530
5361 5364 5367 5369 5371 5374 5383 5385 5394 5398 5400 5411 5400 5390 5390 5392 5393 5389 5391 5394 5395 5390 5389 5396 5417 5434 5442 5441 5439 5441 5442 5422 5434 5466 5515 5509 5519 5516 5521 5523 5512 5517 5518 5521
5359 5360 5362 5364 5365 5366 5371 5378 5380 5384 5381 5392 5390 5384 5386 5391 5398 5395 5390 5388 5385 5384 5376 5391 5399 5411 5428 5450 5457 5456 5443 5429 5423 5457 5492 5499 5504 5509 5510 5518 5511 5496 5501 5504
5355 5357 5358 5359 5360 5360 5364 5368 5366 5370 5362 5383 5376 5384 5384 5381 5377 5380 5385 5377 5383 5385 5384 5390 5402 5402 5435 5447 5458 5441 5438 5441 5444 5455 5494 5502 5491 5499 5506 5503 5478 5483 5479 5470
5352 5353 5353 5354 5355 5354 5356 5358 5358 5356 5354 5374 5369 5369 5370 5373 5369 5364 5368 5371 5369 5376 5384 5399 5386 5381 5437 5452 5468 5462 5466 5470 5474 5480 5485 5485 5467 5493 5488 5451 5460 5462 5457 5446
5346 5347 5349 5349 5349 5348 5347 5348 5350 5347 5344 5361 5360 5361 5360 5360 5361 5360 5361 5362 5361 5365 5370 5384 5377 5394 5425 5439 5451 5463 5445 5438 5451 5448 5444 5430 5432 5432 5425 5436 5437 5438 5435 5429
5341 5342 5343 5343 5343 5343 5342 5345 5341 5339 5342 5355 5364 5369 5367 5361 5355 5352 5349 5366 5366 5357 5349 5360 5377 5390 5413 5422 5418 5438 5440 5446 5438 5443 5406 5406 5410 5412 5409 5412 5414 5413 5415 5415
5336 5336 5336 5337 5337 5336 5336 5339 5338 5340 5343 5349 5369 5364 5363 5361 5359 5355 5351 5353 5356 5358 5364 5361 5369 5385 5409 5412 5415 5417 5412 5430 5422 5406 5404 5406 5399 5395 5397 5397 5397 5397 5398 5398
5330 5330 5331 5331 5331 5330 5330 5332 5334 5335 5339 5346 5356 5362 5367 5363 5359 5356 5352 5349 5349 5357 5355 5358 5371 5396 5393 5411 5419 5404 5392 5380 5400 5409 5396 5395 5384 5382 5383 5386 5388 5388 5391 5387
5324 5325 5326 5326 5326 5326 5326 5324 5329 5327 5328 5330 5346 5360 5358 5359 5356 5357 5356 5353 5345 5344 5350 5359 5381 5390 5396 5401 5401 5376 5373 5376 5373 5381 5376 5374 5372 5373 5374 5376 5376 5372 5376 5377
5319 5319 5320 5321 5322 5324 5326 5332 5325 5327 5318 5317 5335 5359 5361 5353 5354 5355 5355 5347 5343 5346 5356 5375 5381 5391 5395 5399 5396 5367 5362 5360 5362 5364 5372 5375 5371 5368 5368 5374 5373 5374 5374 5372
5313 5314 5316 5318 5319 5319 5323 5323 5320 5319 5312 5314 5331 5350 5350 5347 5347 5347 5348 5341 5341 5351 5367 5380 5384 5394 5399 5391 5360 5358 5353 5352 5355 5359 5365 5368 5365 5369 5371 5372 5372 5371 5366 5362
5309 5310 5312 5314 5315 5318 5322 5319 5316 5315 5316 5328 5338 5348 5350 5341 5343 5344 5340 5348 5354 5376 5374 5381 5388 5393 5388 5364 5357 5349 5346 5348 5354 5355 5362 5369 5369 5369 5368 5368 5367 5364 5356 5350
5305 5306 5308 5316 5318 5317 5315 5313 5315 5315 5321 5330 5341 5359 5352 5347 5342 5340 5350 5358 5368 5374 5387 5388 5382 5387 5350 5348 5346 5348 5347 5346 5352 5361 5363 5362 5361 5359 5356 5354 5353 5350 5344 5338
5300 5309 5316 5316 5315 5315 5323 5325 5328 5332 5332 5346 5351 5357 5357 5353 5347 5354 5363 5368 5377 5382 5397 5389 5395 5385 5349 5342 5343 5342 5344 5348 5349 5350 5349 5350 5353 5348 5344 5337 5334 5331 5325 5317
5306 5314 5312 5311 5318 5328 5329 5335 5339 5343 5354 5361 5357 5358 5363 5362 5364 5365 5371 5377 5380 5384 5391 5387 5404 5355 5344 5339 5336 5335 5337 5338 5337 5338 5336 5335 5332 5330 5325 5319 5313 5306 5300 5296
5307 5312 5316 5326 5325 5326 5330 5336 5346 5356 5361 5356 5353 5350 5360 5363 5369 5363 5369 5367 5385 5389 5390 5400 5367 5348 5342 5338 5335 5330 5328 5326 5323 5320 5318 5316 5312 5309 5305 5297 5291 5288 5283 5278
5319 5325 5321 5329 5330 5340 5355 5363 5366 5353 5356 5359 5357 5352 5357 5362 5355 5359 5374 5383 5385 5397 5402 5394 5362 5343 5334 5330 5327 5324 5314 5311 5309 5305 5301 5296 5292 5288 5284 5280 5276 5273 5268 5263
5326 5339 5339 5336 5338 5333 5336 5338 5347 5348 5344 5349 5354 5359 5360 5365 5366 5366 5373 5383 5397 5404 5392 5361 5342 5330 5322 5317 5312 5306 5302 5300 5298 5293 5289 5285 5281 5277 5273 5268 5263 5257 5252 5247
5325 5325 5325 5324 5332 5333 5334 5343 5343 5346 5347 5350 5357 5366 5370 5372 5377 5374 5386 5397 5406 5373 5351 5335 5326 5318 5312 5307 5303 5299 5297 5294 5289 5285 5281 5276 5271 5268 5260 5253 5247 5242 5238 5233
5316 5317 5312 5322 5329 5339 5337 5339 5343 5344 5351 5366 5372 5373 5378 5375 5381 5382 5381 5380 5357 5339 5330 5326 5319 5311 5303 5297 5293 5291 5290 5288 5283 5278 5273 5267 5260 5253 5251 5247 5238 5234 5226 5219